User: anonymous   Login
Location: Dover
(39.1580°N, 75.5250°W)
Time: 13:25:10
(UTC-05:00)
Language:

Cosmos 1437 Rocket - Orbit

View from above orbital plane
View from above orbital plane
View from above satellite
View from above satellite

Ground track
Ground track

The orbit data is extracted from the following two-line orbital elements,

1 13771U 83003B   18021.22450341 -.00000310  00000-0 -20175-4 0  9991
2 13771  81.1705 111.7699 0042646   5.4784 354.6898 15.10116357906690
Epoch (UTC): 21 January 2018 05:23:17
Eccentricity: 0.0042646
inclination: 81.1705°
perigee height: 506 km
apogee height: 565 km
right ascension of ascending node: 111.7699°
argument of perigee: 5.4784°
revolutions per day: 15.10116357
mean anomaly at epoch: 354.6898°
orbit number at epoch: 90669

The dashed part of the orbit path shows where the satellite is in the earth's shadow,  

DLR